Location: Newark
(44.2764°N, 5.2753°E)
Time: 02:57:51
(UTC+00:00)

X-37B - Pass Details

Date: 14 March 2021
Orbit: 380 x 394 km, 45.0° (Epoch: 07 April)

Event Time Altitude Azimuth Distance (km) Brightness Sun altitude
Rises 19:31:55 0° 259° (W) 2,269 5.5 -19.9°
Reaches altitude 10° 19:33:59 10° 260° (W) 1,418 4.3 -20.3°
Enters shadow 19:36:47 66° 264° (W) 431 0.9 -20.7°
